Location: Newark
(40.9833°N, 0.0333°W)
Time: 23:21:08
(UTC+00:00)

Transit 4A - Pass Details

Date: 28 October 2020
Orbit: 862 x 982 km, 66.8° (Epoch: 29 November)

Event Time Altitude Azimuth Distance (km) Brightness Sun altitude
Rises 13:28:58 0° 162° (SSE) 3,563 11.5 30.4°
Reaches altitude 10° 13:32:14 10° 145° (SE) 2,647 10.7 30.1°
Maximum altitude 13:36:19 19° 103° (ESE) 2,124 9.8 29.7°
Drops below altitude 10° 13:40:28 10° 62° (ENE) 2,707 9.9 29.3°
Sets 13:43:50 0° 45° (NE) 3,674 10.5 29.0°
